Have a Safe July 4th! 

Flight Track Log - Related Links

Times and Time Zones

All times are in EDT time to prevent confusion due to time zone crossing. See the ASQ5958 flight status page for this flight to view local times or setup timezone preferences in your user account.

Time Position Orientation Groundspeed Altitude Reporting Facility
EDT Latitude Longitude Course Direction KTS MPH feet Rate Location/Type
Sat 09:58:48 PM 39.8833 -104.6000 212° Southwest 182 209 6,700  Level Denver TRACON
Sat 09:59:42 PM 39.8500 -104.5333 123° Southeast 227 261 8,100 1,421 Climbing Denver TRACON
Sat 10:00:42 PM 39.8333 -104.4500 105° East 281 323 9,400 1,526 Climbing Denver TRACON
Sat 10:01:00 PM 39.7156 -104.3506 205° Southwest  Level FlightAware Approximate
Sat 10:01:36 PM 39.7833 -104.3833 134° Southeast 321 369 11,000  Level Denver TRACON
Sat 10:02:00 PM 39.6203 -104.4065 201° Southwest  Level FlightAware Approximate
Sat 10:02:07 PM 39.7286 -104.3756 174° South 318 366 12,000  Level Denver Center
Sat 10:03:00 PM 39.5296 -104.4730 212° Southwest  Level FlightAware Approximate
Sat 10:03:08 PM 39.6339 -104.3883 186° South 339 390 13,800  Level Denver Center
Sat 10:04:09 PM 39.5367 -104.4019 186° South 353 406 15,600 1,756 Climbing Denver Center
Sat 10:05:11 PM 39.4372 -104.4161 186° South 359 413 17,400 1,659 Climbing Denver Center
Sat 10:06:12 PM 39.3256 -104.4311 186° South 372 428 19,000 1,279 Climbing Denver Center
Sat 10:07:13 PM 39.2186 -104.4469 187° South 388 447 20,000 934 Climbing Denver Center
Sat 10:08:14 PM 39.1222 -104.4561 184° South 408 470 20,900 976 Climbing Denver Center
Sat 10:09:16 PM 38.9919 -104.4186 167° South 410 472 22,000 1,024 Climbing Denver Center
Sat 10:10:17 PM 38.8833 -104.3897 168° South 416 479 23,000 1,230 Climbing Denver Center
Sat 10:11:18 PM 38.7572 -104.3547 168° South 415 478 24,500 1,561 Climbing Denver Center
Sat 10:12:20 PM 38.6553 -104.3217 166° South 402 463 26,200 1,659 Climbing Denver Center
Sat 10:13:21 PM 38.5656 -104.2211 139° Southeast 396 456 27,900 1,377 Climbing Denver Center
Sat 10:14:22 PM 38.4822 -104.1417 143° Southeast 378 435 29,000 541 Climbing Denver Center
Sat 10:15:23 PM 38.3886 -104.0717 150° Southeast 404 465 29,000  Level Denver Center
Sat 10:16:37 PM 38.2550 -103.9678 149° Southeast 440 506 29,000  Level Denver Center
Sat 10:17:38 PM 38.1489 -103.8847 148° Southeast 462 532 29,000 878 Level Denver Center
Sat 10:18:40 PM 38.0281 -103.7906 148° Southeast 455 524 30,800 976 Climbing Denver Center
Sat 10:19:41 PM 37.9267 -103.7125 149° Southeast 444 511 31,000 98 Climbing Denver Center
Sat 10:20:42 PM 37.8197 -103.6292 148° Southeast 465 535 31,000  Level Denver Center
Sat 10:21:44 PM 37.6917 -103.5319 149° Southeast 476 548 31,000  Level Denver Center
Sat 10:22:45 PM 37.5828 -103.4478 149° Southeast 476 548 31,000  Level Denver Center
Sat 10:23:46 PM 37.4750 -103.3658 149° Southeast 471 542 31,000  Level Denver Center
Sat 10:24:48 PM 37.3497 -103.2714 149° Southeast 469 540 31,000  Level Denver Center
Sat 10:25:21 PM 37.2953 -103.2308 149° Southeast 469 540 31,000  Level Albuquerque Center
Sat 10:26:22 PM 37.1694 -103.1353 149° Southeast 471 542 31,000  Level Albuquerque Center
Sat 10:27:23 PM 37.0606 -103.0542 149° Southeast 473 544 31,000  Level Albuquerque Center
Sat 10:28:24 PM 36.9517 -102.9725 149° Southeast 475 547 31,000  Level Albuquerque Center
Sat 10:29:25 PM 36.8261 -102.8775 149° Southeast 472 543 31,000  Level Albuquerque Center
Sat 10:30:26 PM 36.7181 -102.7967 149° Southeast 471 542 31,000  Level Albuquerque Center
Sat 10:31:27 PM 36.5997 -102.7094 149° Southeast 472 543 31,000  Level Albuquerque Center
Sat 10:32:28 PM 36.4869 -102.6261 149° Southeast 472 543 31,000  Level Albuquerque Center
Sat 10:33:29 PM 36.3756 -102.5425 149° Southeast 470 541 31,000 -344 Level Albuquerque Center
Sat 10:34:30 PM 36.2633 -102.4597 149° Southeast 469 540 30,300 -1,180 Descending Albuquerque Center
Sat 10:35:31 PM 36.1525 -102.3792 150° Southeast 464 534 28,600 -2,492 Descending Albuquerque Center
Sat 10:37:33 PM 35.9286 -102.2161 149° Southeast 465 535 22,700 -2,918 Descending Albuquerque Center
Sat 10:38:34 PM 35.8250 -102.1414 150° Southeast 440 506 19,700 -2,951 Descending Albuquerque Center
Sat 10:39:35 PM 35.7256 -102.0689 149° Southeast 424 488 16,700 -2,902 Descending Albuquerque Center
Sat 10:40:36 PM 35.6353 -101.9914 145° Southeast 404 465 13,800 -3,049 Descending Albuquerque Center
Sat 10:41:37 PM 35.5333 -101.8953 142° Southeast 388 447 10,500 -2,115 Descending Albuquerque Center
Sat 10:42:38 PM 35.4644 -101.8250 140° Southeast 325 374 9,500 -1,525 Descending Albuquerque Center
Sat 10:43:39 PM 35.4044 -101.7628 140° Southeast 298 343 7,400 -2,066 Descending Albuquerque Center

Login

Don't have an account? Register now (free) for customized features, flight alerts, and more!